Flag for Denmark Weather past 2 weeks in Randers, Denmark

Now
48 °F

Light rain. Partly cloudy.


Feels Like: 46 °F
Forecast: 47 / 55 °F
Wind: 6 mph from Southeast

Location: Tirstrup

Current Time: May 30, 2015 at 1:34:25 AM

Latest Report: May 30, 2015 at 1:20 AM


Visibility: 3 mi

Pressure: 29.53 "Hg

Humidity: 94%

Dew point: 46 °F

Location of RandersLocation

Historic Weather in Randers — Graph

°F

Randers temperature yesterday

Maximum temperature yesterday: 55 °F (at 10:20 AM)
Minimum temperature yesterday: 43 °F (at 3:20 AM)
Average temperature yesterday: 50 °F

Past Weeks' High & Low Weather Summary

 TemperatureHumidityPressure
High63 °F (May 15, 3:50 PM)94% (May 19, 12:50 AM)30.21 "Hg (May 19, 12:50 AM)
Low37 °F (May 15, 4:20 AM)31% (May 15, 3:20 PM)29.45 "Hg (May 19, 2:50 AM)
Average50 °F69%29.92 "Hg
* Reported May 15 12:20 AM — May 30 12:20 AM, Randers, Weather by CustomWeather, © 2015

Note: Actual official high and low records may vary slightly from our data, if they occured in-between our weather recording intervals... More about our weather records

Advertising

Randers weather history for previous 24 hours

 ConditionsComfort  
Time TempWeatherWind HumidityBarometerVisibility
12:20 AM
Sat, May 30
48 °FDrizzle. Fog.5 mph87%29.59 "Hg2 mi
11:50 PM
Fri, May 29
48 °FDrizzle. Fog.5 mph87%29.59 "Hg2 mi
11:20 PM48 °FLight rain. Fog.5 mph87%29.62 "Hg3 mi
10:20 PM48 °FLight rain. Broken clouds.5 mph87%29.65 "Hg4 mi
9:50 PM48 °FLight rain. Partly sunny.6 mph87%29.65 "Hg4 mi
9:20 PM48 °FLight rain. Overcast.5 mph87%29.65 "Hg5 mi
8:50 PM50 °FDrizzle. Overcast.3 mph82%29.68 "HgN/A
8:20 PM50 °FDrizzle. Overcast.5 mph82%29.68 "HgN/A
7:50 PM50 °FLight rain. Overcast.5 mph82%29.68 "Hg6 mi
7:20 PM50 °FDrizzle. Overcast.6 mph82%29.71 "HgN/A
6:50 PM50 °FDrizzle. More clouds than sun.5 mph76%29.71 "HgN/A
6:20 PM50 °FDrizzle. Overcast.5 mph76%29.71 "HgN/A
5:50 PM50 °FDrizzle. Partly sunny.5 mph76%29.71 "HgN/A
5:20 PM52 °FSprinkles. Partly sunny.8 mph67%29.74 "HgN/A
4:50 PM52 °FSprinkles. Partly sunny.8 mph67%29.74 "HgN/A
4:20 PM54 °FPartly sunny.9 mph63%29.74 "HgN/A
3:50 PM54 °FSprinkles. Partly sunny.3 mph63%29.74 "HgN/A
3:20 PM55 °FSprinkles. Partly sunny.5 mph59%29.74 "HgN/A
2:50 PM55 °FPartly sunny.5 mph55%29.74 "HgN/A
2:20 PM55 °FScattered clouds.8 mph55%29.74 "HgN/A
1:50 PM55 °FPartly sunny.8 mph59%29.74 "HgN/A
1:20 PM54 °FPartly sunny.5 mph67%29.74 "HgN/A
12:50 PM52 °FSprinkles. Broken clouds.3 mph72%29.74 "HgN/A
12:20 PM54 °FPartly sunny.8 mph67%29.74 "HgN/A
11:50 AM52 °FPartly sunny.3 mph72%29.77 "HgN/A
11:20 AM50 °FRain showers. Broken clouds.6 mph76%29.77 "HgN/A
10:50 AM50 °FRain. Broken clouds.14 mph67%29.77 "Hg5 mi
10:20 AM55 °FPartly sunny.8 mph59%29.74 "HgN/A
9:50 AM54 °FPassing clouds.9 mph63%29.77 "HgN/A
9:20 AM52 °FPassing clouds.10 mph72%29.77 "HgN/A
8:50 AM52 °FScattered clouds.10 mph72%29.77 "HgN/A
8:20 AM52 °FPartly sunny.9 mph72%29.77 "HgN/A
7:50 AM50 °FScattered clouds.8 mph76%29.77 "HgN/A
7:20 AM50 °FPassing clouds.7 mph76%29.77 "HgN/A
6:50 AM48 °FScattered clouds.7 mph76%29.77 "HgN/A
6:20 AM46 °FScattered clouds.6 mph82%29.77 "HgN/A
5:20 AM45 °FPassing clouds.6 mph81%29.77 "HgN/A
4:50 AM45 °FQuite cool.6 mph81%29.77 "HgN/A
4:20 AM45 °FQuite cool.6 mph81%29.77 "HgN/A
3:50 AM45 °FQuite cool.6 mph81%29.77 "HgN/A
3:20 AM43 °FQuite cool.6 mph87%29.77 "HgN/A
2:50 AM45 °FQuite cool.6 mph81%29.77 "HgN/A
2:20 AM45 °FQuite cool.6 mph81%29.77 "HgN/A
1:50 AM45 °FQuite cool.7 mph81%29.77 "HgN/A
1:20 AM45 °FQuite cool.6 mph81%29.77 "HgN/A
Weather by CustomWeather, © 2015

See weather overviewHow to use our weather pages